Location: Cortada de Papelón
(10.0378°N, 66.9528°W)
Time: 09:02:54
(UTC+00:00)

Ariane H10 - Pass Details

Date: 13 June 2024
Orbit: 423 x 34536 km, 4.1° (Epoch: 19 July)

Event Time Altitude Azimuth Distance (km) Brightness Sun altitude
Rises 23:27:28 0° 266° (W) 7,103 9.1 -9.4°
Reaches altitude 10° 23:34:39 10° 260° (W) 3,794 7.4 -11.0°
Maximum altitude 23:41:08 35° 194° (SSW) 1,015 3.5 -12.4°
Enters shadow 23:42:56 19° 136° (SE) 1,222 3.5 -12.8°
